Weather History for Porto, Portugal

Change the Weather History Date:

Thursday, February 7, 2013

  Actual Average Record
Temperature  
Mean Temperature 44 °F -  
Max Temperature 55 °F 58 °F 69 °F (2008)
Min Temperature 33 °F 42 °F 32 °F (1999)
Degree Days  
Heating Degree Days 21    
Moisture  
Dew Point 38 °F    
Average Humidity 75    
Maximum Humidity 93    
Minimum Humidity 41    
Precipitation  
Precipitation 0.00 in - - ()
Sea Level Pressure  
Sea Level Pressure 30.41 in    
Wind  
Wind Speed 6 mph ()    
Max Wind Speed 16 mph    
Max Gust Speed -    
Visibility 7.7 miles    
Events      
Averages and records for this station are not official NWS values.
T = Trace of Precipitation, MM = Missing Value Source: Averaged Metar Reports

Daily Weather History Graph

Daily Weather History Graph

Search for Another Location

Airport:

Trip Planner

Search our weather history database for the weather conditions in past years. The results will help you decide how hot, cold, wet, or windy it might be!

Date:

Astronomy

Feb. 07, 2013 Rise Set
Actual Time 7:39 AM WET 5:58 PM WET
Civil Twilight 7:10 AM WET 6:27 PM WET
Nautical Twilight 6:37 AM WET 7:00 PM WET
Astronomical Twilight 6:05 AM WET 7:32 PM WET
Moon 5:07 AM WET (2/7) 3:07 PM WET (2/7)
Length of Visible Light 11h 17m
Length of Day
10h 19m
Waning Crescent, 10% of the Moon is Illuminated
Feb 7
Waning Crescent
Feb 10
New
Feb 17
First Quarter
Feb 25
Full
Mar 4
Last Quarter

Hourly Weather History & Observations

Time (WET) Temp. Windchill Dew Point Humidity Pressure Visibility Wind Dir Wind Speed Gust Speed Precip Events Conditions
12:00 AM 43 °F - 35 °F 66% 30.42 in 9 mi North 4.5 mph - -   Partly Cloudy
12:00 AM 41.0 °F 39.0 °F 39.2 °F 93% 30.39 in - North 3.5 mph - N/A   Clear
12:30 AM 44.6 °F - 39.2 °F 81% 30.39 in - Variable 1.2 mph - N/A   Clear
1:00 AM 42.8 °F 38.6 °F 37.4 °F 81% 30.39 in - NNW 6.9 mph - N/A   Clear
1:30 AM 42.8 °F 38.0 °F 37.4 °F 81% 30.39 in - NNW 8.1 mph - N/A   Clear
2:00 AM 42.8 °F 39.3 °F 37.4 °F 81% 30.39 in - NNW 5.8 mph - N/A   Clear
2:30 AM 39.2 °F - 35.6 °F 87% 30.39 in - Variable 2.3 mph - N/A   Clear
3:00 AM 40 °F - 33 °F 68% 30.43 in 9 mi North 4.5 mph - -   Partly Cloudy
3:00 AM 39.2 °F 37.0 °F 35.6 °F 87% 30.39 in - North 3.5 mph - N/A   Clear
3:30 AM 39.2 °F 35.9 °F 37.4 °F 93% 30.39 in - NNW 4.6 mph - N/A   Clear
4:00 AM 37.4 °F 34.9 °F 33.8 °F 87% 30.39 in - East 3.5 mph - N/A   Clear
4:30 AM 41.0 °F 38.0 °F 37.4 °F 87% 30.39 in - North 4.6 mph - N/A   Clear
5:00 AM 39.2 °F - 35.6 °F 87% 30.39 in - North 2.3 mph - N/A   Clear
5:30 AM 37.4 °F 34.9 °F 35.6 °F 93% 30.42 in - NE 3.5 mph - N/A   Clear
6:00 AM 38 °F - 33 °F 77% 30.45 in 7 mi 2.2 mph - -   Partly Cloudy
6:00 AM 37.4 °F 34.9 °F 33.8 °F 87% 30.42 in - NE 3.5 mph - N/A   Clear
6:30 AM 37.4 °F - 35.6 °F 93% 30.42 in - Variable 1.2 mph - N/A   Clear
7:00 AM 37.4 °F 32.8 °F 35.6 °F 93% 30.42 in - NNE 5.8 mph - N/A   Clear
7:30 AM 33.8 °F 28.6 °F 32.0 °F 93% 30.42 in - North 5.8 mph - N/A   Clear
8:00 AM 35.6 °F 31.7 °F 33.8 °F 93% 30.42 in - North 4.6 mph - N/A   Clear
8:30 AM 35.6 °F 31.7 °F 33.8 °F 93% 30.42 in - North 4.6 mph - N/A   Clear
9:00 AM 43 °F - 35 °F 66% 30.48 in 9 mi NNE 4.5 mph - -   Partly Cloudy
9:00 AM 41.0 °F 39.0 °F 39.2 °F 93% 30.45 in - North 3.5 mph - N/A   Clear
9:30 AM 42.8 °F - 39.2 °F 87% 30.45 in - Calm Calm - N/A   Clear
10:00 AM 46.4 °F 44.3 °F 37.4 °F 71% 30.45 in - NNE 4.6 mph - N/A   Clear
10:30 AM 46.4 °F 42.9 °F 37.4 °F 71% 30.45 in - NNE 6.9 mph - N/A   Clear
11:00 AM 48.2 °F - 37.4 °F 66% 30.45 in - North 8.1 mph - N/A   Clear
11:30 AM 50.0 °F - 37.4 °F 62% 30.45 in - North 11.5 mph - N/A   Clear
12:00 PM 51 °F - 34 °F 41% 30.48 in 12 mi North 11.2 mph - -   Partly Cloudy
12:00 PM 51.8 °F - 39.2 °F 62% 30.45 in 6.2 mi North 9.2 mph - N/A   Partly Cloudy
12:30 PM 51.8 °F - 37.4 °F 58% 30.45 in 6.2 mi North 9.2 mph - N/A   Partly Cloudy
1:00 PM 53.6 °F - 37.4 °F 54% 30.42 in 6.2 mi North 13.8 mph - N/A   Partly Cloudy
1:30 PM 53.6 °F - 35.6 °F 51% 30.42 in 6.2 mi NNE 12.7 mph - N/A   Partly Cloudy
2:00 PM 53.6 °F - 37.4 °F 54% 30.39 in 6.2 mi North 11.5 mph - N/A   Partly Cloudy
2:30 PM 53.6 °F - 41.0 °F 62% 30.39 in 6.2 mi NNW 10.4 mph - N/A   Scattered Clouds
3:00 PM 53 °F - 38 °F 46% 30.42 in 12 mi NW 15.7 mph - -   Partly Cloudy
3:00 PM 51.8 °F - 41.0 °F 67% 30.39 in 6.2 mi NNW 11.5 mph - N/A   Scattered Clouds
3:30 PM 55.4 °F - 37.4 °F 51% 30.39 in 6.2 mi North 11.5 mph - N/A   Scattered Clouds
4:00 PM 53.6 °F - 37.4 °F 54% 30.39 in 6.2 mi North 12.7 mph - N/A   Scattered Clouds
4:30 PM 53.6 °F - 37.4 °F 54% 30.39 in 6.2 mi North 11.5 mph - N/A   Partly Cloudy
5:00 PM 53.6 °F - 37.4 °F 54% 30.39 in 6.2 mi North 9.2 mph - N/A   Partly Cloudy
5:30 PM 51.8 °F - 41.0 °F 67% 30.36 in 6.2 mi NNW 11.5 mph - N/A   Partly Cloudy
6:00 PM 50 °F - 39 °F 56% 30.41 in 12 mi NNW 8.9 mph - -   Partly Cloudy
6:00 PM 50.0 °F - 41.0 °F 71% 30.39 in - NNW 8.1 mph - N/A   Clear
6:30 PM 50.0 °F - 42.8 °F 76% 30.39 in - NNW 10.4 mph - N/A   Clear
7:00 PM 48.2 °F - 41.0 °F 76% 30.39 in - NNW 11.5 mph - N/A   Clear
7:30 PM 44.6 °F 40.2 °F 41.0 °F 87% 30.39 in - North 8.1 mph - N/A   Clear
8:00 PM 46.4 °F 42.9 °F 41.0 °F 81% 30.39 in - North 6.9 mph - N/A   Clear
8:30 PM 44.6 °F 40.7 °F 39.2 °F 81% 30.39 in - North 6.9 mph - N/A   Clear
9:00 PM 45 °F - 38 °F 68% 30.41 in 9 mi North 6.7 mph - -   Partly Cloudy
9:00 PM 44.6 °F 40.2 °F 41.0 °F 87% 30.39 in - North 8.1 mph - N/A   Clear
9:30 PM 44.6 °F 40.7 °F 39.2 °F 81% 30.39 in - North 6.9 mph - N/A   Clear
10:00 PM 42.8 °F 39.3 °F 39.2 °F 87% 30.39 in - North 5.8 mph - N/A   Clear
10:30 PM 42.8 °F 41.1 °F 39.2 °F 87% 30.39 in - NNE 3.5 mph - N/A   Clear
11:00 PM 42.8 °F 39.3 °F 39.2 °F 87% 30.39 in - NNE 5.8 mph - N/A   Clear
11:30 PM 42.8 °F 39.3 °F 39.2 °F 87% 30.39 in - NNE 5.8 mph - N/A   Clear